Date_and_time,latitude,longitude,wind_speed,RelWindDirFrom,WindDirFrom,air_pressure,air_temperature,relative_humidity,Temp,platform_speed_wrt_ground,air_pressure_at_mean_sea_level,platform_orientation
2019-02-16 23:40,50.63044,-96.9807966666667,5.3,6.4,345,995.48,-17.0,74,0.40,0.0,1025.46,323.4
2019-02-16 23:50,50.630445,-96.9807816666667,4.6,5.4,348,995.57,-16.8,73,0.40,0.0,1025.51,323.4
2019-02-17 00:00,50.6304433333333,-96.9807733333333,4.6,5.3,355,995.57,-16.9,74,0.40,0.0,1025.51,38.0
2019-02-17 00:10,50.6304216666667,-96.9807533333333,5.5,6.2,2,995.57,-17.1,74,0.41,0.0,1025.52,38.0
2019-02-17 00:20,50.6304516666667,-96.98076,5.9,6.6,2,995.61,-17.2,75,0.41,0.0,1025.55,38.0
2019-02-17 00:30,50.630445,-96.9807616666667,5.8,6.5,2,995.59,-17.3,75,0.41,0.0,1025.54,38.0
2019-02-17 00:40,50.6304433333333,-96.9807633333333,5.4,5.9,358,995.67,-17.7,77,0.41,0.0,1025.63,38.0
2019-02-17 00:50,50.6304433333333,-96.9807633333333,5.3,6.2,354,995.67,-17.2,78,0.41,0.0,1025.60,38.0
2019-02-17 01:00,50.630445,-96.980765,5.6,6.8,353,995.59,-16.6,74,0.41,0.0,1025.51,68.5
2019-02-17 01:10,50.6304433333333,-96.9807666666667,6.1,7.3,348,995.65,-16.3,71,0.41,0.0,1025.57,68.5
2019-02-17 01:20,50.630445,-96.9807666666667,6.4,8.2,350,995.69,-16.2,71,0.41,0.0,1025.62,68.5
2019-02-17 01:30,50.630445,-96.9807683333333,7.2,8.4,351,995.62,-16.2,73,0.41,0.0,1025.55,68.5
2019-02-17 01:40,50.630445,-96.9807683333333,7.5,9.1,351,995.61,-16.1,71,0.41,0.0,1025.52,68.5
2019-02-17 01:50,50.630445,-96.9807683333333,8.0,10.5,352,995.64,-15.8,70,0.41,0.0,1025.54,68.5
2019-02-17 02:00,50.630445,-96.9807666666667,8.4,10.4,355,995.68,-15.7,71,0.42,0.0,1025.58,90.0
2019-02-17 02:10,50.630445,-96.9807666666667,8.7,10.1,358,995.70,-15.8,70,0.41,0.0,1025.61,90.0
2019-02-17 02:20,50.630445,-96.9807683333333,9.3,11.3,356,995.76,-15.9,71,0.41,0.0,1025.69,90.0
2019-02-17 02:30,50.6304533333333,-96.9807783333333,9.0,10.7,354,995.90,-16.0,71,0.41,0.0,1025.86,90.0
2019-02-17 02:40,50.6304483333333,-96.9807316666667,8.2,9.7,354,996.07,-16.0,71,0.41,0.0,1026.01,90.0
2019-02-17 02:50,50.6304383333333,-96.9807583333333,7.1,8.1,354,996.11,-16.1,72,0.41,0.0,1026.02,90.0
2019-02-17 03:00,50.63045,-96.980775,7.7,10.1,352,996.14,-15.9,72,0.41,0.0,1026.02,360.0
2019-02-17 03:10,50.63045,-96.9807733333333,8.4,10.6,353,996.18,-15.7,72,0.42,0.0,1026.04,360.0
2019-02-17 03:20,50.6304483333333,-96.98077,9.0,11.2,356,996.21,-15.8,72,0.42,0.0,1026.08,360.0
2019-02-17 03:30,50.6304483333333,-96.9807683333333,9.5,11.9,356,996.23,-15.7,72,0.41,0.0,1026.09,360.0
2019-02-17 03:40,50.6304483333333,-96.9807683333333,9.8,12.3,357,996.38,-15.8,72,0.41,0.0,1026.23,360.0
2019-02-17 03:50,50.6304466666667,-96.9807666666667,9.8,11.5,357,996.42,-15.9,71,0.42,0.0,1026.27,360.0
2019-02-17 04:00,50.6304483333333,-96.9807683333333,9.0,10.3,357,996.54,-16.0,70,0.42,0.0,1026.41,360.0
2019-02-17 04:10,50.6304483333333,-96.98077,9.2,10.9,3,996.62,-16.1,70,0.42,0.0,1026.50,360.0
2019-02-17 04:20,50.630435,-96.9807916666667,7.9,10.5,3,996.70,-16.4,71,0.42,0.0,1026.61,360.0
2019-02-17 04:30,50.630445,-96.98077,8.4,11.1,3,996.71,-16.6,72,0.41,0.0,1026.63,360.0
2019-02-17 04:40,50.6304466666667,-96.98077,8.3,9.8,4,996.76,-16.8,73,0.41,0.0,1026.70,360.0
2019-02-17 04:50,50.6304516666667,-96.9807666666667,8.5,10.1,1,996.80,-17.0,73,0.41,0.0,1026.74,360.0
2019-02-17 05:00,50.6304533333333,-96.9807666666667,8.8,10.2,1,996.85,-17.0,73,0.41,0.0,1026.78,360.0
2019-02-17 05:10,50.6304583333333,-96.9807883333333,8.5,9.9,0,996.95,-17.0,73,0.42,0.0,1026.89,360.0
2019-02-17 05:20,50.6304566666667,-96.9807866666667,7.9,9.4,359,997.06,-17.2,74,0.41,0.0,1027.01,360.0
2019-02-17 05:30,50.6304583333333,-96.98078,8.0,9.7,2,997.05,-17.2,74,0.41,0.0,1027.00,360.0
2019-02-17 05:40,50.630455,-96.98078,7.1,8.5,4,997.07,-18.1,75,0.41,0.0,1027.08,360.0
2019-02-17 05:50,50.6304583333333,-96.9807783333333,7.2,8.7,359,997.13,-18.5,76,0.41,0.0,1027.18,360.0
2019-02-17 06:00,50.6304583333333,-96.9807783333333,8.6,10.9,356,997.09,-17.5,76,0.41,0.0,1027.08,299.2
2019-02-17 06:10,50.6304583333333,-96.980775,9.5,12.1,354,997.08,-16.8,76,0.41,0.0,1027.05,299.2
2019-02-17 06:20,50.63046,-96.9807783333333,9.4,11.7,352,997.11,-16.7,76,0.41,0.0,1027.08,299.2
2019-02-17 06:30,50.6304566666667,-96.9807766666667,9.4,12.1,355,997.06,-16.6,77,0.41,0.0,1027.04,299.2
2019-02-17 06:40,50.630425,-96.980765,9.7,11.5,356,997.07,-16.7,78,0.41,0.0,1027.07,299.2
2019-02-17 06:50,50.6304516666667,-96.9807633333333,10.1,12.1,357,997.15,-16.8,78,0.41,0.0,1027.16,299.2
2019-02-17 07:00,50.6304566666667,-96.9807683333333,10.2,11.9,355,997.27,-17.0,79,0.41,0.0,1027.29,38.0
2019-02-17 07:10,50.63045,-96.98076,10.5,12.7,356,997.35,-17.1,80,0.41,0.0,1027.38,38.0
2019-02-17 07:20,50.6304516666667,-96.9807633333333,11.5,13.4,356,997.41,-17.2,81,0.41,0.0,1027.45,38.0
2019-02-17 07:30,50.6304516666667,-96.980765,11.9,14.6,358,997.37,-17.2,81,0.41,0.0,1027.48,38.0
2019-02-17 07:40,50.6304533333333,-96.9807683333333,11.6,14.5,1,997.31,-17.3,82,0.41,0.0,1027.44,38.0
2019-02-17 07:50,50.6304533333333,-96.98077,11.4,13.5,360,997.32,-17.4,83,0.41,0.0,1027.40,38.0
2019-02-17 08:00,50.6304433333333,-96.980775,10.9,13.2,0,997.35,-17.6,83,0.41,0.0,1027.40,194.5
2019-02-17 08:10,50.6304366666667,-96.9807733333333,12.0,15.2,3,997.34,-17.6,84,0.40,0.0,1027.38,194.5
2019-02-17 08:20,50.6304483333333,-96.9807666666667,11.6,14.1,3,997.44,-17.9,84,0.40,0.0,1027.49,194.5
2019-02-17 08:30,50.6304533333333,-96.9807583333333,10.9,13.4,4,997.45,-17.9,85,0.40,0.0,1027.51,194.5
2019-02-17 08:40,50.6304516666667,-96.980765,9.9,12.3,2,997.48,-18.0,85,0.40,0.0,1027.56,194.5
2019-02-17 08:50,50.630445,-96.9807466666667,9.7,11.8,2,997.49,-18.3,85,0.40,0.0,1027.59,194.5
2019-02-17 09:00,50.6304516666667,-96.980775,9.1,11.0,360,997.50,-18.4,86,0.40,0.0,1027.62,119.2
2019-02-17 09:10,50.6304533333333,-96.9807783333333,8.9,10.8,357,997.52,-18.5,86,0.40,0.0,1027.66,119.2
2019-02-17 09:20,50.630455,-96.9807783333333,8.7,10.7,356,997.61,-18.7,86,0.40,0.0,1027.75,119.2
2019-02-17 09:30,50.6304216666667,-96.980775,9.1,11.5,356,997.65,-18.6,87,0.40,0.0,1027.79,119.2
2019-02-17 09:40,50.6304516666667,-96.9807683333333,9.7,11.7,355,997.72,-18.2,87,0.40,0.0,1027.84,119.2
2019-02-17 09:50,50.6304816666667,-96.9807883333333,10.9,13.7,354,997.77,-18.0,87,0.39,0.0,1027.90,119.2
2019-02-17 10:00,50.6304583333333,-96.9807783333333,10.1,12.4,355,997.90,-17.9,86,0.39,0.0,1028.03,293.6
2019-02-17 10:10,50.630455,-96.9807766666667,9.5,11.7,356,997.98,-17.9,86,0.39,0.0,1028.13,293.6
2019-02-17 10:20,50.6304566666667,-96.9807783333333,9.6,11.8,356,998.07,-17.8,85,0.39,0.0,1028.22,293.6
2019-02-17 10:30,50.6304566666667,-96.9807766666667,9.7,11.8,355,998.14,-17.7,85,0.39,0.0,1028.29,293.6
2019-02-17 10:40,50.6304566666667,-96.980775,9.3,11.3,352,998.22,-17.5,85,0.38,0.0,1028.38,293.6
2019-02-17 10:50,50.63046,-96.9807633333333,9.4,12.3,357,998.30,-17.4,85,0.38,0.0,1028.47,293.6
2019-02-17 11:00,50.630465,-96.9807566666667,9.6,12.5,359,998.46,-17.2,85,0.38,0.0,1028.62,360.0
2019-02-17 11:10,50.6304683333333,-96.9807633333333,7.3,10.2,357,998.65,-17.5,84,0.38,0.0,1028.84,360.0
2019-02-17 11:20,50.6304666666667,-96.9807616666667,8.1,10.3,358,998.68,-17.6,85,0.38,0.0,1028.87,360.0
2019-02-17 11:30,50.6304616666667,-96.9807733333333,9.0,10.6,357,998.73,-17.6,85,0.38,0.0,1028.91,360.0
2019-02-17 11:40,50.6304566666667,-96.98077,8.4,10.9,355,998.83,-17.8,85,0.38,0.0,1029.01,360.0
2019-02-17 11:50,50.630455,-96.980765,8.6,10.1,354,998.88,-18.0,86,0.38,0.0,1029.06,360.0
2019-02-17 12:00,50.6304566666667,-96.980765,8.3,9.7,354,998.94,-18.2,86,0.38,0.0,1029.14,90.0
2019-02-17 12:10,50.6304566666667,-96.980765,8.4,10.4,348,999.04,-18.4,86,0.38,0.0,1029.25,90.0
2019-02-17 12:20,50.6304516666667,-96.9807633333333,8.4,10.1,349,999.17,-18.5,86,0.38,0.0,1029.38,90.0
2019-02-17 12:30,50.6304716666667,-96.98077,9.1,11.7,350,999.19,-18.8,86,0.38,0.0,1029.41,90.0
2019-02-17 12:40,50.630465,-96.9807733333333,8.1,10.3,347,999.33,-19.0,87,0.38,0.0,1029.56,90.0
2019-02-17 12:50,50.6304616666667,-96.9807716666667,8.9,11.5,346,999.41,-19.0,86,0.38,0.0,1029.62,90.0
2019-02-17 13:00,50.63046,-96.9807716666667,9.3,11.2,348,999.44,-19.1,86,0.37,0.0,1029.68,90.0
2019-02-17 13:10,50.6304533333333,-96.9807716666667,10.5,13.1,351,999.40,-19.2,86,0.37,0.0,1029.65,90.0
2019-02-17 13:20,50.6304566666667,-96.98077,9.8,12.7,351,999.46,-19.4,86,0.37,0.0,1029.73,90.0
2019-02-17 13:30,50.6304566666667,-96.9807716666667,10.4,12.5,352,999.50,-19.6,85,0.37,0.0,1029.79,90.0
2019-02-17 13:40,50.6304483333333,-96.9807366666667,10.2,13.0,352,999.51,-19.7,85,0.37,0.0,1029.82,90.0
2019-02-17 13:50,50.63047,-96.9807316666667,10.6,13.0,355,999.53,-19.9,85,0.37,0.0,1029.87,90.0
2019-02-17 14:00,50.63046,-96.9807466666667,10.6,12.6,355,999.57,-20.1,85,0.37,0.0,1029.93,143.4
2019-02-17 14:10,50.6304633333333,-96.980755,10.1,12.5,354,999.66,-20.1,85,0.37,0.0,1030.03,143.4
2019-02-17 14:20,50.630445,-96.9807566666667,10.3,12.7,356,999.72,-20.0,84,0.37,0.0,1030.11,143.4
2019-02-17 14:30,50.630455,-96.9807516666667,11.0,13.1,357,999.78,-19.9,83,0.37,0.0,1030.18,143.4
2019-02-17 14:40,50.630455,-96.9807516666667,11.5,14.2,357,999.95,-19.9,82,0.37,0.0,1030.34,143.4
2019-02-17 14:50,50.630455,-96.980755,11.1,13.6,355,1000.15,-19.9,82,0.37,0.0,1030.56,143.4
2019-02-17 15:00,50.630455,-96.9807583333333,10.3,12.5,353,1000.29,-19.8,81,0.36,0.0,1030.71,90.0
2019-02-17 15:10,50.630455,-96.9807583333333,9.5,11.9,353,1000.41,-19.5,80,0.36,0.0,1030.82,90.0
2019-02-17 15:20,50.6304583333333,-96.980765,9.7,11.8,355,1000.51,-19.2,79,0.36,0.0,1030.91,90.0
2019-02-17 15:30,50.630455,-96.980755,9.8,12.5,356,1000.53,-18.9,78,0.36,0.0,1030.93,90.0
2019-02-17 15:40,50.630455,-96.9807583333333,10.6,12.8,356,1000.57,-18.8,78,0.36,0.0,1030.97,90.0
2019-02-17 15:50,50.6304566666667,-96.9807616666667,10.5,13.1,357,1000.63,-18.7,78,0.36,0.0,1031.04,90.0
2019-02-17 16:00,50.630455,-96.9807616666667,10.3,13.4,356,1000.67,-18.7,78,0.36,0.0,1031.08,125.3
2019-02-17 16:10,50.630455,-96.9807633333333,10.5,13.1,354,1000.75,-18.5,77,0.35,0.0,1031.14,125.3
2019-02-17 16:20,50.6304566666667,-96.9807666666667,10.4,12.7,353,1000.84,-18.2,76,0.36,0.0,1031.22,125.3
2019-02-17 16:30,50.63044,-96.9807566666667,10.3,12.4,354,1000.85,-18.1,76,0.36,0.0,1031.22,125.3
2019-02-17 16:40,50.630445,-96.9807633333333,9.6,12.3,354,1000.89,-18.0,76,0.35,0.0,1031.25,125.3
2019-02-17 16:50,50.63045,-96.980765,10.2,13.2,352,1000.93,-17.7,75,0.35,0.0,1031.27,125.3
2019-02-17 17:00,50.6304483333333,-96.9807633333333,10.5,13.1,352,1000.93,-17.6,75,0.35,0.0,1031.25,229.4
2019-02-17 17:10,50.63045,-96.9807633333333,10.8,14.0,354,1000.99,-17.5,75,0.35,0.0,1031.29,229.4
2019-02-17 17:20,50.63045,-96.9807633333333,10.4,13.4,352,1001.05,-17.4,75,0.35,0.0,1031.32,229.4
2019-02-17 17:30,50.63045,-96.9807616666667,10.0,12.8,353,1001.10,-17.2,75,0.35,0.0,1031.36,229.4
2019-02-17 17:40,50.6304483333333,-96.980765,10.4,12.9,359,1001.05,-17.0,75,0.35,0.0,1031.29,229.4
2019-02-17 17:50,50.6304483333333,-96.980765,10.2,12.2,360,1001.06,-16.6,74,0.35,0.0,1031.28,229.4
2019-02-17 18:00,50.6304466666667,-96.98078,10.4,12.6,358,1001.06,-16.2,74,0.35,0.0,1031.24,253.2
2019-02-17 18:10,50.6304466666667,-96.9807716666667,9.6,11.7,0,1001.07,-15.9,73,0.35,0.0,1031.21,253.2
2019-02-17 18:20,50.6304466666667,-96.9807716666667,9.5,11.6,3,1001.09,-15.6,72,0.35,0.0,1031.21,253.2
2019-02-17 18:30,50.6304483333333,-96.9807733333333,10.0,12.0,5,1001.07,-15.5,73,0.35,0.0,1031.17,253.2
2019-02-17 18:40,50.63045,-96.9807733333333,9.1,11.2,0,1001.05,-15.1,72,0.35,0.0,1031.12,253.2
2019-02-17 18:50,50.63045,-96.9807716666667,8.1,10.4,356,1001.00,-14.5,69,0.35,0.0,1031.02,253.2
2019-02-17 19:00,50.6304516666667,-96.9807716666667,8.9,11.1,357,1001.02,-14.2,68,0.35,0.0,1031.02,270.0
2019-02-17 19:10,50.6304533333333,-96.980755,8.8,11.9,354,1000.99,-13.8,67,0.35,0.0,1030.96,270.0
2019-02-17 19:20,50.6304483333333,-96.9807516666667,9.4,12.4,352,1000.96,-13.6,66,0.35,0.0,1030.90,270.0
2019-02-17 19:30,50.6304533333333,-96.98076,9.5,13.1,354,1000.89,-13.6,65,0.35,0.0,1030.82,270.0
2019-02-17 19:40,50.6304216666667,-96.9807366666667,9.6,12.4,356,1000.90,-13.5,66,0.36,0.0,1030.80,270.0
2019-02-17 19:50,50.630445,-96.98076,9.3,10.9,356,1000.92,-13.4,66,0.36,0.0,1030.80,270.0
2019-02-17 20:00,50.6304433333333,-96.9807616666667,9.3,13.3,350,1000.95,-13.2,65,0.36,0.0,1030.79,167.4
2019-02-17 20:10,50.63044,-96.9807483333333,10.0,12.8,349,1000.93,-13.0,63,0.36,0.0,1030.74,167.4
2019-02-17 20:20,50.6304433333333,-96.9807516666667,10.2,13.3,350,1000.86,-12.9,63,0.36,0.0,1030.66,167.4
2019-02-17 20:30,50.630445,-96.9807516666667,9.6,13.1,350,1000.86,-12.9,63,0.36,0.0,1030.64,167.4
2019-02-17 20:40,50.6304466666667,-96.9807566666667,9.3,11.7,358,1000.92,-12.9,64,0.37,0.0,1030.66,167.4
2019-02-17 20:50,50.630445,-96.9807566666667,10.7,13.3,1,1001.03,-13.0,65,0.37,0.0,1030.77,167.4
2019-02-17 21:00,50.630445,-96.9807583333333,11.0,13.4,0,1001.15,-12.9,65,0.37,0.0,1030.86,107.7
2019-02-17 21:10,50.6304583333333,-96.980775,10.5,13.8,360,1001.24,-12.8,65,0.37,0.0,1030.94,107.7
2019-02-17 21:20,50.6304533333333,-96.98077,11.2,15.3,356,1001.33,-12.7,64,0.37,0.0,1031.02,107.7
2019-02-17 21:30,50.6304483333333,-96.980765,12.3,15.8,359,1001.32,-12.6,63,0.37,0.0,1031.00,107.7
2019-02-17 21:40,50.63045,-96.9807666666667,11.4,14.8,358,1001.34,-12.6,63,0.37,0.0,1031.01,107.7
2019-02-17 21:50,50.63045,-96.9807716666667,11.3,15.5,358,1001.30,-12.6,63,0.37,0.0,1030.96,107.7
2019-02-17 22:00,50.63045,-96.9807716666667,10.7,13.6,354,1001.36,-12.5,62,0.37,0.0,1031.01,0.0
2019-02-17 22:10,50.63045,-96.9807716666667,10.0,13.2,349,1001.37,-12.4,61,0.37,0.0,1031.01,0.0
2019-02-17 22:20,50.6304483333333,-96.9807666666667,9.7,12.6,347,1001.35,-12.5,61,0.38,0.0,1030.99,0.0
2019-02-17 22:30,50.6304466666667,-96.9807683333333,10.1,12.3,348,1001.33,-12.5,61,0.38,0.0,1030.97,0.0
2019-02-17 22:40,50.630445,-96.9807666666667,10.0,13.1,350,1001.39,-12.4,59,0.38,0.0,1031.04,0.0
2019-02-17 22:50,50.630445,-96.9807683333333,8.6,11.8,349,1001.46,-12.6,59,0.38,0.0,1031.11,0.0
2019-02-17 23:00,50.6304433333333,-96.980765,8.7,10.9,351,1001.54,-12.7,60,0.38,0.0,1031.19,270.0
2019-02-17 23:10,50.6304433333333,-96.9807666666667,8.4,10.2,347,1001.63,-13.0,60,0.38,0.0,1031.30,270.0
2019-02-17 23:20,50.630445,-96.9807666666667,8.3,10.6,342,1001.66,-13.2,60,0.38,0.0,1031.33,270.0
2019-02-17 23:30,50.630445,-96.98077,8.3,10.2,339,1001.69,-13.2,59,0.38,0.0,1031.36,270.0
2019-02-17 23:40,50.6304466666667,-96.9807716666667,7.4,10.5,330,1001.71,-13.5,60,0.39,0.0,1031.40,270.0
2019-02-17 23:50,50.6304433333333,-96.98077,7.5,10.7,326,1001.79,-13.8,61,0.39,0.0,1031.49,270.0
